Location: Melbourne
(37.8666°S, 145.1333°E)
Time: 09:09:55
(UTC+10:00)

Amateur Radio Satellites - All Passes

Search period start: 02 July 2015 08:39
Search period end: 03 July 2015 08:39
Location: Melbourne, 37.8666°S, 145.1333°E

Satellite Date Start Highest point End Downlink Frequencies (MHz)
Time Altitude Azimuth
COMPASS 1 02 Jul 08:40:15 08:44:31 75° 281° (WNW) 08:48:50 437.405
HUMSAT D 02 Jul 08:41:48 08:41:56 10° 115° (ESE) 08:42:22 437.325/437.525
CANX-2 02 Jul 08:42:34 08:46:40 40° 278° (W) 08:50:47 2200.000
M-CUBED/EXP-1 PRIME 02 Jul 08:42:48 08:46:36 42° 78° (ENE) 08:50:06 437.505
HO-68 02 Jul 08:52:52 08:59:46 46° 279° (W) 09:06:41 435.675
JUGNU 02 Jul 08:53:36 08:54:43 10° 351° (N) 08:55:46 437.505
DELFI C3 02 Jul 08:55:57 08:59:47 40° 107° (ESE) 09:03:41 145.870
CUSAT 1 02 Jul 09:04:43 09:08:42 14° 262° (W) 09:12:05 437.405
GOMX 1 02 Jul 09:05:56 09:08:37 15° 268° (W) 09:11:11 467.674
CUBEBUG 2 02 Jul 09:09:57 09:14:31 85° 100° (E) 09:19:18 437.445
DX 1 02 Jul 09:15:14 09:18:32 22° 112° (ESE) 09:21:56 434.975-435.025
50 SAT 02 Jul 09:23:13 09:25:19 14° 113° (ESE) 09:27:36 437.505
ZACube-1 02 Jul 09:26:49 09:31:20 80° 103° (ESE) 09:35:59 437.345
GONETS M04 02 Jul 09:32:48 09:40:55 40° 268° (W) 09:48:49
SEEDS 02 Jul 09:35:20 09:37:52 15° 270° (W) 09:40:12 437.485
CINEMA 3 02 Jul 09:37:13 09:41:01 24° 272° (W) 09:44:52 145.822/145.860
SRMSAT 02 Jul 09:37:58 09:40:34 13° 356° (N) 09:43:10 437.500
AISAT 02 Jul 09:39:01 09:42:22 22° 112° (ESE) 09:45:52 437.250
UKube-1 02 Jul 09:40:25 09:44:24 37° 108° (ESE) 09:48:28 .
Oscar 11 02 Jul 09:43:46 09:47:51 37° 277° (W) 09:51:59 145.826/435.025
AUBIESAT-1 02 Jul 09:46:30 09:50:08 33° 246° (WSW) 09:53:27 437.475
TIGRISAT 02 Jul 09:46:32 09:48:38 13° 91° (E) 09:50:58 435.000
AAUSAT CUBESAT 2 02 Jul 09:55:17 09:57:18 13° 270° (W) 09:59:05 437.432
ESTCUBE 1 02 Jul 09:59:10 10:02:39 23° 111° (ESE) 10:06:15 437.505/2401.250
Cosmos 2499 02 Jul 10:03:06 10:11:21 78° 99° (E) 10:18:52 435.465 / 435.565
FUNcube-1 02 Jul 10:04:51 10:09:05 39° 277° (W) 10:13:26 145.935
CUBEBUG 1 02 Jul 10:07:20 10:10:41 22° 111° (ESE) 10:14:09 437.445
UWE-3 02 Jul 10:08:53 10:12:48 28° 274° (W) 10:16:48 435.000/436.395/437.385
HUMSAT D 02 Jul 10:12:47 10:17:06 73° 281° (WNW) 10:21:31 437.325/437.525
QB50P1 02 Jul 10:15:58 10:16:31 10° 92° (E) 10:17:22 145.935-145.965
M-CUBED/EXP-1 PRIME 02 Jul 10:18:53 10:21:01 14° 240° (WSW) 10:22:54 437.505
UNISAT 6 02 Jul 10:23:09 10:27:26 35° 84° (E) 10:31:38 437.425
VELOX 1 02 Jul 10:28:12 10:32:37 74° 104° (ESE) 10:37:06 145.980
NANOSAT C BR1 02 Jul 10:29:43 10:32:16 16° 89° (E) 10:34:59 145.865
DELFI C3 02 Jul 10:32:45 10:35:06 14° 271° (W) 10:37:16 145.870
DUCHIFAT 1 02 Jul 10:37:25 10:40:28 19° 87° (E) 10:43:35 145.980
POLYITAN 1 02 Jul 10:38:09 10:41:22 20° 87° (E) 10:44:41 437.675
DX 1 02 Jul 10:50:43 10:54:37 31° 276° (W) 10:58:31 434.975-435.025
50 SAT 02 Jul 10:55:47 10:59:36 41° 278° (W) 11:03:28 437.505
ANTELSAT 02 Jul 11:07:19 11:12:02 75° 256° (WSW) 11:16:34 437.575/2403.000
QB50P2 02 Jul 11:07:39 11:11:51 45° 81° (E) 11:16:00 145.880/145.840
BUGSAT 1 02 Jul 11:08:13 11:11:54 27° 84° (E) 11:15:36 437.445
POPSAT HIP 1 02 Jul 11:09:12 11:13:25 45° 81° (E) 11:17:35 437.405
AISAT 02 Jul 11:14:49 11:18:47 31° 276° (W) 11:22:46 437.250
UKube-1 02 Jul 11:17:43 11:20:43 17° 272° (W) 11:23:34 .
SPROUT 02 Jul 11:20:57 11:24:59 41° 107° (ESE) 11:29:06 437.525
TIGRISAT 02 Jul 11:21:14 11:25:50 54° 254° (WSW) 11:30:16 435.000
ESTCUBE 1 02 Jul 11:35:18 11:39:21 31° 276° (W) 11:43:25 437.505/2401.250
CUBEBUG 1 02 Jul 11:43:04 11:46:54 29° 276° (W) 11:50:44 437.445
QB50P1 02 Jul 11:48:32 11:52:52 61° 254° (WSW) 11:57:08 145.935-145.965
Cosmos 2499 02 Jul 11:58:22 12:03:30 18° 260° (W) 12:07:58 435.465 / 435.565
UNISAT 6 02 Jul 12:00:25 12:03:59 21° 248° (WSW) 12:07:23 437.425
NANOSAT C BR1 02 Jul 12:04:13 12:08:20 41° 253° (WSW) 12:12:23 145.865
DUCHIFAT 1 02 Jul 12:12:24 12:16:22 34° 252° (WSW) 12:20:15 145.980
POLYITAN 1 02 Jul 12:13:25 12:17:21 32° 251° (WSW) 12:21:11 437.675
TISAT 1 02 Jul 12:15:01 12:19:13 70° 281° (WNW) 12:23:31 437.305
PCSat 02 Jul 12:27:58 12:32:33 27° 129° (SE) 12:37:10 145.827
BUGSAT 1 02 Jul 12:43:46 12:47:14 23° 250° (WSW) 12:50:36 437.445
QB50P2 02 Jul 12:44:44 12:47:23 15° 247° (WSW) 12:49:52 145.880/145.840
POPSAT HIP 1 02 Jul 12:46:17 12:48:56 15° 247° (WSW) 12:51:24 437.405
BEESAT 02 Jul 12:48:50 12:53:20 42° 108° (ESE) 12:57:55 436.000
SPROUT 02 Jul 12:58:36 13:01:18 16° 271° (W) 13:03:51 437.525
SWISSCUBE 02 Jul 13:03:39 13:08:24 66° 105° (ESE) 13:13:13 437.505
ITUPSAT 1 02 Jul 13:07:25 13:12:11 65° 106° (ESE) 13:17:00 437.325
RS-15 02 Jul 13:09:08 13:19:30 36° 73° (ENE) 13:30:07 29.354- 29.394
KKS-1 02 Jul 13:18:29 13:20:43 14° 115° (ESE) 13:23:09 437.445
Oscar 19 02 Jul 13:18:41 13:23:36 39° 83° (E) 13:28:29 437.125/150
ITAMSAT 1 02 Jul 13:26:18 13:27:31 11° 92° (E) 13:29:06 435.822/435.867
Cosmos 2491 02 Jul 13:30:02 13:37:48 34° 109° (ESE) 13:45:43 435.465 / 435.565
SO-50 02 Jul 13:31:46 13:35:37 29° 129° (SE) 13:39:31 436.795
YUBILEINY 02 Jul 14:04:31 14:11:00 25° 97° (E) 14:17:54 435.215
AIST 1 02 Jul 14:08:50 14:12:25 25° 105° (ESE) 14:16:03
PCSat 02 Jul 14:11:01 14:16:07 41° 291° (WNW) 14:21:09 145.827
STARS 02 Jul 14:16:11 14:20:11 35° 109° (ESE) 14:24:17 437.465
BEESAT 02 Jul 14:27:57 14:31:24 19° 272° (W) 14:34:42 436.000
Gurwin Techsat 1B 02 Jul 14:38:36 14:43:58 66° 79° (E) 14:49:17 435.225
SWISSCUBE 02 Jul 14:44:58 14:46:49 12° 269° (W) 14:48:19 437.505
ITUPSAT 1 02 Jul 14:48:38 14:50:36 12° 269° (W) 14:52:17 437.325
MOZHAYETS 4 02 Jul 14:50:28 14:52:38 14° 114° (ESE) 14:55:01
KKS-1 02 Jul 14:52:32 14:56:55 54° 280° (W) 15:01:22 437.445
Oscar 19 02 Jul 14:58:31 15:02:45 24° 247° (WSW) 15:06:49 437.125/150
ITAMSAT 1 02 Jul 15:02:27 15:07:44 78° 255° (WSW) 15:12:57 435.822/435.867
JAS-2 02 Jul 15:07:04 15:12:43 32° 87° (E) 15:17:50 435.910
AO-7 02 Jul 15:11:42 15:18:00 24° 87° (E) 15:24:34 29.400- 29.500
SO-50 02 Jul 15:12:20 15:16:03 26° 294° (WNW) 15:19:43 436.795
RS-15 02 Jul 15:19:13 15:31:29 67° 234° (SW) 15:43:27 29.354- 29.394
Cosmos 2491 02 Jul 15:26:32 15:34:59 50° 270° (W) 15:43:20 435.465 / 435.565
HORYU 2 02 Jul 15:46:07 15:50:26 42° 82° (E) 15:54:41 437.375
AIST 1 02 Jul 15:46:26 15:50:01 24° 270° (W) 15:53:28
STARS 02 Jul 15:53:28 15:56:44 19° 273° (W) 15:59:56 437.465
YUBILEINY 02 Jul 15:58:23 16:07:11 66° 259° (W) 16:16:03 435.215
Gurwin Techsat 1B 02 Jul 16:20:13 16:23:27 16° 244° (WSW) 16:26:25 435.225
MOZHAYETS 4 02 Jul 16:24:47 16:29:23 60° 280° (W) 16:34:03
Cosmos 2504 02 Jul 16:24:57 16:31:08 23° 98° (E) 16:37:49 435.465 / 435.565
CUBESAT XI-V 02 Jul 16:44:54 16:47:54 18° 113° (ESE) 16:51:04 437.345
JAS-2 02 Jul 16:51:59 16:57:52 35° 247° (WSW) 17:03:01 435.910
AO-7 02 Jul 17:03:11 17:11:29 68° 249° (WSW) 17:19:42 29.400- 29.500
CUTE-I 02 Jul 17:18:42 17:20:26 12° 92° (E) 17:22:33 437.470
HORYU 2 02 Jul 17:23:41 17:26:45 18° 247° (WSW) 17:29:39 437.375
RS-15 02 Jul 17:37:36 17:46:59 24° 206° (SSW) 17:55:49 29.354- 29.394
Cubesat XI-IV 02 Jul 17:49:53 17:54:16 26° 86° (E) 17:58:44 437.490
YUBILEINY 02 Jul 18:03:13 18:06:15 11° 236° (SW) 18:08:32 435.215
STRAND 1 02 Jul 18:05:52 18:10:43 46° 108° (ESE) 18:15:40 437.568
PRISM 02 Jul 18:12:20 18:16:19 47° 106° (ESE) 18:20:21 437.425
Cosmos 2504 02 Jul 18:15:02 18:23:46 73° 261° (W) 18:32:47 435.465 / 435.565
CUBESAT XI-V 02 Jul 18:20:36 18:25:02 43° 278° (W) 18:29:29 437.345
CUSAT 1 02 Jul 18:45:41 18:47:21 12° 99° (E) 18:49:29 437.405
VERMONT LUNAR 02 Jul 18:46:32 18:47:02 10° 36° (NE) 18:47:39 437.305
CUTE-I 02 Jul 18:55:49 19:01:13 76° 254° (WSW) 19:06:34 437.470
AUBIESAT-1 02 Jul 18:57:31 19:01:02 21° 116° (ESE) 19:04:40 437.475
AO-7 02 Jul 18:58:45 19:02:57 14° 231° (SW) 19:06:40 29.400- 29.500
O/OREOS (USA 219) 02 Jul 19:25:04 19:29:37 63° 72° (ENE) 19:34:15 437.305
M-CUBED/EXP-1 PRIME 02 Jul 19:27:45 19:32:23 49° 111° (ESE) 19:37:02 437.505
DANDE 02 Jul 19:28:22 19:31:12 22° 94° (E) 19:34:48 436.750
Cubesat XI-IV 02 Jul 19:29:31 19:34:29 37° 250° (WSW) 19:39:21 437.490
GOMX 1 02 Jul 19:29:42 19:33:32 20° 89° (E) 19:37:35 467.674
BEESAT 3 02 Jul 19:32:20 19:36:14 83° 59° (ENE) 19:40:11 437.485
BRITE-PL 02 Jul 19:38:48 19:43:57 39° 84° (E) 19:49:17 437.365/2234.400
BEESAT 2 02 Jul 19:40:32 19:44:28 79° 60° (ENE) 19:48:26 435.950
ISS 02 Jul 19:41:17 19:43:47 21° 49° (NE) 19:46:23 145.825
STRAND 1 02 Jul 19:46:30 19:50:12 19° 272° (W) 19:53:46 437.568
PRISM 02 Jul 19:50:09 19:52:05 13° 270° (W) 19:53:48 437.425
RS-15 02 Jul 19:58:23 20:05:31 17° 171° (S) 20:12:38 29.354- 29.394
Cosmos 2504 02 Jul 20:14:34 20:19:08 14° 238° (WSW) 20:23:05 435.465 / 435.565
VERMONT LUNAR 02 Jul 20:20:21 20:23:33 52° 23° (NNE) 20:26:46 437.305
HO-68 02 Jul 20:22:24 20:29:03 39° 83° (E) 20:35:44 435.675
CUSAT 1 02 Jul 20:25:11 20:29:03 47° 254° (WSW) 20:34:14 437.405
COMPASS 1 02 Jul 20:26:24 20:29:27 20° 87° (E) 20:32:35 437.405
DOVE 4 02 Jul 20:26:37 20:31:44 44° 83° (E) 20:36:49 437.250
CUTE 1.7 + AOD 2 02 Jul 20:26:50 20:30:41 32° 84° (E) 20:34:30 437.475
CANX-2 02 Jul 20:29:37 20:33:39 38° 83° (E) 20:37:39 2200.000
AUBIESAT-1 02 Jul 20:30:56 20:35:29 42° 282° (WNW) 20:40:00 437.475
GONETS M04 02 Jul 20:34:14 20:42:32 52° 90° (E) 20:51:02
AIST 2 02 Jul 20:40:39 20:44:42 85° 59° (ENE) 20:48:48 435.215
TIGRISAT 02 Jul 20:44:55 20:45:59 11° 117° (ESE) 20:47:20 435.000
Cosmos 2499 02 Jul 20:50:03 20:52:01 11° 103° (ESE) 20:54:49 435.465 / 435.565
CUBEBUG 2 02 Jul 21:03:50 21:07:29 22° 88° (E) 21:11:10 437.445
M-CUBED/EXP-1 PRIME 02 Jul 21:04:03 21:07:24 18° 276° (W) 21:10:33 437.505
GOMX 1 02 Jul 21:06:36 21:11:56 52° 253° (WSW) 21:17:17 467.674
O/OREOS (USA 219) 02 Jul 21:07:08 21:09:35 14° 233° (SW) 21:11:51 437.305
DANDE 02 Jul 21:11:15 21:14:19 22° 246° (WSW) 21:18:02 436.750
BEESAT 3 02 Jul 21:14:20 21:14:48 10° 222° (SW) 21:15:04 437.485
ISS 02 Jul 21:16:57 21:20:03 36° 214° (SSW) 21:23:11 145.825
BRITE-PL 02 Jul 21:17:37 21:22:18 28° 250° (WSW) 21:27:00 437.365/2234.400
ZACube-1 02 Jul 21:18:32 21:21:40 19° 89° (E) 21:24:53 437.345
SEEDS 02 Jul 21:19:18 21:23:34 74° 256° (WSW) 21:27:46 437.485
UNISAT 6 02 Jul 21:20:20 21:24:13 27° 111° (ESE) 21:28:15 437.425
BEESAT 2 02 Jul 21:22:07 21:23:06 11° 222° (SW) 21:23:55 435.950
DUCHIFAT 1 02 Jul 21:29:39 21:31:10 12° 115° (ESE) 21:32:54 145.980
POLYITAN 1 02 Jul 21:30:43 21:32:41 13° 114° (ESE) 21:34:52 437.675
Oscar 11 02 Jul 21:32:41 21:36:53 43° 82° (E) 21:41:02 145.826/435.025
CINEMA 3 02 Jul 21:32:44 21:37:53 87° 257° (WSW) 21:42:52 145.822/145.860
PHONESAT 2.4 02 Jul 21:35:55 21:39:17 41° 26° (NNE) 21:42:40 2401.200-2431.200
AAUSAT CUBESAT 2 02 Jul 21:37:19 21:41:31 68° 255° (WSW) 21:45:40 437.432
FUNcube-1 02 Jul 21:54:57 21:59:23 45° 82° (E) 22:03:42 145.935
VERMONT LUNAR 02 Jul 21:57:19 22:00:33 56° 187° (S) 22:03:46 437.305
BUGSAT 1 02 Jul 21:57:42 22:00:04 16° 113° (ESE) 22:02:37 437.445
QB50P2 02 Jul 21:59:03 22:02:38 27° 110° (ESE) 22:06:21 145.880/145.840
HUMSAT D 02 Jul 21:59:32 22:02:48 21° 87° (E) 22:06:06 437.325/437.525
UWE-3 02 Jul 21:59:54 22:04:38 71° 80° (E) 22:09:12 435.000/436.395/437.385
POPSAT HIP 1 02 Jul 22:00:28 22:04:04 27° 110° (ESE) 22:07:46 437.405
COMPASS 1 02 Jul 22:01:26 22:05:11 30° 252° (WSW) 22:08:49 437.405
CUTE 1.7 + AOD 2 02 Jul 22:03:12 22:06:24 20° 249° (WSW) 22:09:27 437.475
ANTELSAT 02 Jul 22:03:51 22:08:32 78° 105° (ESE) 22:13:19 437.575/2403.000
DOVE 4 02 Jul 22:04:58 22:09:11 23° 248° (WSW) 22:13:15 437.250
CANX-2 02 Jul 22:06:27 22:09:17 17° 248° (WSW) 22:11:57 2200.000
HO-68 02 Jul 22:10:09 22:16:46 39° 246° (WSW) 22:23:14 435.675
DELFI C3 02 Jul 22:11:29 22:15:35 89° 79° (ENE) 22:19:37 145.870
RS-15 02 Jul 22:12:06 22:22:42 39° 138° (SE) 22:32:57 29.354- 29.394
TIGRISAT 02 Jul 22:17:26 22:22:06 78° 282° (WNW) 22:26:55 435.000
VELOX 1 02 Jul 22:21:43 22:24:30 17° 88° (E) 22:27:28 145.980
AIST 2 02 Jul 22:22:56 22:23:54 11° 221° (SW) 22:24:41 435.215
GONETS M04 02 Jul 22:32:03 22:39:46 33° 250° (WSW) 22:47:24
50 SAT 02 Jul 22:33:44 22:37:00 24° 85° (E) 22:40:17 437.505
Cosmos 2499 02 Jul 22:35:06 22:43:48 68° 87° (E) 22:52:40 435.465 / 435.565
QB50P1 02 Jul 22:39:03 22:43:18 78° 104° (ESE) 22:47:39 145.935-145.965
CUBEBUG 2 02 Jul 22:39:52 22:44:16 35° 251° (WSW) 22:48:29 437.445
DX 1 02 Jul 22:40:15 22:44:34 50° 80° (E) 22:48:52 434.975-435.025
ZACube-1 02 Jul 22:53:54 22:58:12 38° 252° (WSW) 23:02:21 437.345
NANOSAT C BR1 02 Jul 22:54:22 22:58:36 71° 281° (WNW) 23:02:56 145.865
ISS 02 Jul 22:56:31 22:57:15 10° 194° (SSW) 22:57:56 145.825
UNISAT 6 02 Jul 22:56:49 23:00:54 29° 275° (W) 23:05:01 437.425
DUCHIFAT 1 02 Jul 23:02:19 23:06:30 58° 281° (W) 23:10:47 145.980
POLYITAN 1 02 Jul 23:03:58 23:08:10 52° 279° (W) 23:12:26 437.675
UKube-1 02 Jul 23:05:12 23:09:38 89° 78° (ENE) 23:14:01 .
AISAT 02 Jul 23:06:38 23:11:07 55° 80° (E) 23:15:33 437.250
Oscar 11 02 Jul 23:10:00 23:12:44 16° 247° (WSW) 23:15:16 145.826/435.025
PHONESAT 2.4 02 Jul 23:13:44 23:17:16 65° 191° (S) 23:20:49 2401.200-2431.200
CINEMA 3 02 Jul 23:13:50 23:14:19 10° 242° (WSW) 23:14:29 145.822/145.860
ESTCUBE 1 02 Jul 23:29:09 23:33:41 61° 79° (E) 23:38:09 437.505/2401.250
BUGSAT 1 02 Jul 23:31:25 23:35:14 38° 278° (W) 23:39:07 437.445
FUNcube-1 02 Jul 23:32:23 23:35:20 17° 247° (WSW) 23:38:04 145.935
CUBEBUG 1 02 Jul 23:32:57 23:37:21 57° 80° (E) 23:41:45 437.445
VERMONT LUNAR 02 Jul 23:34:29 23:37:43 60° 170° (S) 23:40:56 437.305
HUMSAT D 02 Jul 23:34:45 23:38:35 30° 251° (WSW) 23:42:16 437.325/437.525
QB50P2 02 Jul 23:35:02 23:38:31 23° 274° (W) 23:41:57 145.880/145.840
POPSAT HIP 1 02 Jul 23:36:27 23:39:55 23° 274° (W) 23:43:20 437.405
UWE-3 02 Jul 23:38:49 23:40:35 12° 244° (WSW) 23:42:03 435.000/436.395/437.385
VELOX 1 02 Jul 23:57:00 00:01:17 42° 252° (WSW) 00:05:31 145.980
TISAT 1 03 Jul 00:02:00 00:05:16 21° 86° (E) 00:08:37 437.305
50 SAT 03 Jul 00:08:22 00:11:31 22° 250° (WSW) 00:14:33 437.505
DX 1 03 Jul 00:17:54 00:20:26 15° 246° (WSW) 00:22:47 434.975-435.025
Gurwin Techsat 1B 03 Jul 00:22:56 00:23:53 11° 119° (ESE) 00:25:10 435.225
RS-15 03 Jul 00:24:37 00:35:53 64° 294° (WNW) 00:46:34 29.354- 29.394
Cosmos 2499 03 Jul 00:30:32 00:37:47 26° 247° (WSW) 00:44:46 435.465 / 435.565
Oscar 19 03 Jul 00:33:37 00:38:34 47° 108° (ESE) 00:43:37 437.125/150
ITAMSAT 1 03 Jul 00:41:48 00:44:47 16° 116° (ESE) 00:47:59 435.822/435.867
AISAT 03 Jul 00:44:49 00:47:16 14° 246° (WSW) 00:49:29 437.250
SPROUT 03 Jul 00:44:59 00:49:24 78° 256° (WSW) 00:53:46 437.525
PHONESAT 2.4 03 Jul 00:52:02 00:55:33 58° 174° (S) 00:59:03 2401.200-2431.200
BEESAT 03 Jul 00:52:57 00:54:42 12° 91° (E) 00:56:46 436.000
SWISSCUBE 03 Jul 01:06:47 01:10:10 20° 88° (E) 01:13:42 437.505
ESTCUBE 1 03 Jul 01:07:59 01:10:04 13° 245° (WSW) 01:11:56 437.505/2401.250
ITUPSAT 1 03 Jul 01:10:51 01:14:13 19° 88° (E) 01:17:43 437.325
CUBEBUG 1 03 Jul 01:11:06 01:13:17 13° 246° (WSW) 01:15:14 437.445
VERMONT LUNAR 03 Jul 01:11:33 01:14:39 41° 335° (NNW) 01:17:39 437.305
JAS-2 03 Jul 01:17:35 01:22:05 17° 120° (ESE) 01:26:55 435.910
TISAT 1 03 Jul 01:37:14 01:41:04 30° 251° (WSW) 01:44:49 437.305
Gurwin Techsat 1B 03 Jul 01:57:47 02:03:08 85° 104° (ESE) 02:08:33 435.225
AO-7 03 Jul 02:08:55 02:15:46 31° 120° (ESE) 02:22:50 29.400- 29.500
ISS 03 Jul 02:09:57 02:12:25 19° 155° (SSE) 02:14:55 145.825
YUBILEINY 03 Jul 02:10:56 02:19:39 59° 102° (ESE) 02:28:16 435.215
Oscar 19 03 Jul 02:14:29 02:18:13 19° 271° (W) 02:21:49 437.125/150
ITAMSAT 1 03 Jul 02:18:40 02:23:49 62° 281° (W) 02:29:01 435.822/435.867
BEESAT 03 Jul 02:28:16 02:33:04 63° 254° (WSW) 02:37:48 436.000
Cosmos 2491 03 Jul 02:28:56 02:36:48 41° 92° (E) 02:44:53 435.465 / 435.565
PHONESAT 2.4 03 Jul 02:30:09 02:33:38 56° 337° (NNW) 02:37:04 2401.200-2431.200
AIST 1 03 Jul 02:37:32 02:40:02 16° 92° (E) 02:42:46
HORYU 2 03 Jul 02:42:37 02:46:37 32° 109° (ESE) 02:50:43 437.375
SWISSCUBE 03 Jul 02:43:42 02:48:13 40° 251° (WSW) 02:52:40 437.505
RS-15 03 Jul 02:44:55 02:46:18 10° 277° (W) 02:46:21 29.354- 29.394
KKS-1 03 Jul 02:45:36 02:49:42 33° 84° (E) 02:53:49 437.445
ITUPSAT 1 03 Jul 02:47:47 02:52:19 40° 252° (WSW) 02:56:47 437.325
JAS-2 03 Jul 02:58:18 03:06:11 83° 105° (ESE) 03:14:01 435.910
PCSat 03 Jul 03:07:50 03:12:36 33° 70° (ENE) 03:17:27 145.827
Gurwin Techsat 1B 03 Jul 03:43:15 03:43:56 10° 267° (W) 03:44:10 435.225
STARS 03 Jul 03:43:26 03:47:59 89° 92° (E) 03:52:28 437.465
ISS 03 Jul 03:45:48 03:49:05 58° 317° (NW) 03:52:20 145.825
SO-50 03 Jul 03:46:28 03:48:41 14° 70° (ENE) 03:51:07 436.795
BEESAT 3 03 Jul 03:52:39 03:56:05 28° 128° (SE) 03:59:34 437.485
AO-7 03 Jul 03:59:56 04:08:10 60° 282° (WNW) 04:16:23 29.400- 29.500
BEESAT 2 03 Jul 04:01:25 04:04:51 27° 129° (SE) 04:08:20 435.950
YUBILEINY 03 Jul 04:08:45 04:15:59 28° 264° (W) 04:22:50 435.215
PHONESAT 2.4 03 Jul 04:09:51 04:11:12 12° 324° (NW) 04:12:27 2401.200-2431.200
Cosmos 2504 03 Jul 04:11:11 04:18:52 39° 108° (ESE) 04:26:05 435.465 / 435.565
AIST 1 03 Jul 04:13:26 04:17:25 36° 258° (WSW) 04:21:26
HORYU 2 03 Jul 04:19:42 04:23:18 22° 274° (W) 04:26:50 437.375
MOZHAYETS 4 03 Jul 04:21:57 04:26:12 36° 83° (E) 04:30:27
KKS-1 03 Jul 04:22:37 04:26:10 22° 248° (WSW) 04:29:35 437.445
Cosmos 2491 03 Jul 04:25:33 04:33:41 41° 253° (WSW) 04:41:49 435.465 / 435.565
CUTE-I 03 Jul 04:38:07 04:41:35 18° 115° (ESE) 04:45:15 437.470
JAS-2 03 Jul 04:46:34 04:52:03 19° 267° (W) 04:57:03 435.910
PCSat 03 Jul 04:51:07 04:56:00 33° 233° (SW) 05:00:52 145.827
JUGNU 03 Jul 05:02:54 05:03:20 10° 10° (N) 05:03:52 437.505
AIST 2 03 Jul 05:04:01 05:07:45 32° 128° (SE) 05:11:32 435.215
Cubesat XI-IV 03 Jul 05:10:02 05:14:51 36° 110° (ESE) 05:19:46 437.490
CUSAT 1 03 Jul 05:20:29 05:26:13 22° 115° (ESE) 05:32:24 437.405
SO-50 03 Jul 05:24:20 05:28:50 56° 236° (WSW) 05:33:14 436.795
BEESAT 3 03 Jul 05:30:44 05:33:56 23° 293° (WNW) 05:37:03 437.485
O/OREOS (USA 219) 03 Jul 05:36:56 05:41:35 89° 111° (ESE) 05:46:07 437.305
BEESAT 2 03 Jul 05:39:33 05:42:49 24° 293° (WNW) 05:46:01 435.950
MOZHAYETS 4 03 Jul 05:59:45 06:03:12 20° 248° (WSW) 06:06:31
Cosmos 2504 03 Jul 06:04:40 06:12:17 39° 267° (W) 06:19:15 435.465 / 435.565
DANDE 03 Jul 06:06:57 06:14:03 35° 109° (ESE) 06:21:47 436.750
CUTE-I 03 Jul 06:16:01 06:21:15 56° 280° (W) 06:26:33 437.470
CUBESAT XI-V 03 Jul 06:18:47 06:23:24 53° 80° (E) 06:27:58 437.345
STRAND 1 03 Jul 06:19:13 06:22:35 18° 89° (E) 06:26:08 437.568
GOMX 1 03 Jul 06:37:36 06:39:53 14° 116° (ESE) 06:42:29 467.674
AIST 2 03 Jul 06:42:55 06:46:10 22° 292° (WNW) 06:49:20 435.215
GONETS M04 03 Jul 06:47:25 06:54:00 23° 115° (ESE) 07:00:55
BRITE-PL 03 Jul 06:48:52 06:52:36 29° 110° (ESE) 06:56:38 437.365/2234.400
JUGNU 03 Jul 06:48:59 06:51:30 13° 360° (N) 06:54:01 437.505
HO-68 03 Jul 06:49:59 06:55:30 25° 118° (ESE) 07:01:17 435.675
Cubesat XI-IV 03 Jul 06:50:31 06:55:02 27° 274° (W) 06:59:29 437.490
CUSAT 1 03 Jul 07:01:36 07:09:47 84° 278° (W) 07:18:00 437.405
COMPASS 1 03 Jul 07:17:26 07:18:59 12° 114° (ESE) 07:20:45 437.405
CUTE 1.7 + AOD 2 03 Jul 07:18:29 07:21:34 20° 111° (ESE) 07:24:48 437.475
CANX-2 03 Jul 07:21:07 07:24:32 23° 110° (ESE) 07:28:04 2200.000
DOVE 4 03 Jul 07:30:46 07:34:46 32° 110° (ESE) 07:39:06 437.250
PRISM 03 Jul 07:31:25 07:35:36 80° 256° (WSW) 07:39:44 437.425
SRMSAT 03 Jul 07:36:55 07:39:19 12° 5° (N) 07:41:45 437.500
DANDE 03 Jul 07:49:40 07:57:31 54° 274° (W) 08:05:44 436.750
STRAND 1 03 Jul 07:57:08 08:02:07 49° 252° (WSW) 08:07:04 437.568
CUBESAT XI-V 03 Jul 07:57:40 08:00:26 15° 246° (WSW) 08:03:00 437.345
CUBEBUG 2 03 Jul 08:01:02 08:03:45 16° 114° (ESE) 08:06:42 437.445
SEEDS 03 Jul 08:09:06 08:13:20 59° 105° (ESE) 08:17:37 437.485
GOMX 1 03 Jul 08:13:12 08:17:31 53° 279° (W) 08:22:11 467.674
ZACube-1 03 Jul 08:13:53 08:15:52 13° 115° (ESE) 08:18:06 437.345
AUBIESAT-1 03 Jul 08:15:18 08:17:23 15° 85° (E) 08:19:32 437.475
AAUSAT CUBESAT 2 03 Jul 08:25:49 08:30:00 62° 104° (ESE) 08:34:14 437.432
Oscar 11 03 Jul 08:25:53 08:29:35 28° 109° (ESE) 08:33:23 145.826/435.025
BRITE-PL 03 Jul 08:27:49 08:31:13 22° 272° (W) 08:34:43 437.365/2234.400
